• In France
  • List of Countries
  • For 7 days
  • Water Temperature
  • Satellite Maps
  • Weather Map
  • Weather Widgets
  • user-avatar
    Login

    Hourly Weather Pasto

    Today, 15 November, Thursday

    Time Temperature Precipitation Wind Pressure Humidity
    00:00 +10°C° 0.1 mm 0 mps 548 mmHg 94%
    01:00 +10°C° 0 mm 0 mps 548 mmHg 93%
    02:00 +10°C° 0.1 mm 0 mps 548 mmHg 93%
    03:00 +10°C° 0.1 mm 0 mps 548 mmHg 93%
    04:00 +10°C° 0.1 mm 0 mps 547 mmHg 92%
    05:00 +10°C° 0.1 mm 0 mps 548 mmHg 90%
    06:00 +11°C° 0.1 mm 0 mps 548 mmHg 88%
    07:00 +11°C° 0 mm 0 mps 549 mmHg 85%
    08:00 +13°C° 0.1 mm 0 mps 550 mmHg 80%
    09:00 +15°C° 0.1 mm 1 mps 550 mmHg 76%
    10:00 +16°C° 0.1 mm 1 mps 551 mmHg 71%
    11:00 +16°C° 0.2 mm 2 mps 551 mmHg 71%
    12:00 +17°C° 0.2 mm 2 mps 550 mmHg 70%
    13:00 +17°C° 0.2 mm 2 mps 550 mmHg 70%
    14:00 +16°C° 0.4 mm 2 mps 549 mmHg 75%
    15:00 +16°C° 0.4 mm 2 mps 549 mmHg 79%
    16:00 +15°C° 0.4 mm 2 mps 548 mmHg 83%
    17:00 +14°C° 0.8 mm 1 mps 548 mmHg 87%
    18:00 +13°C° 0.8 mm 1 mps 548 mmHg 91%
    19:00 +11°C° 0.8 mm 0 mps 548 mmHg 95%
    20:00 +11°C° 1.5 mm 0 mps 548 mmHg 95%
    21:00 +11°C° 1.5 mm 0 mps 548 mmHg 95%
    22:00 +11°C° 1.5 mm 0 mps 549 mmHg 94%
    23:00 +11°C° 2.6 mm 0 mps 549 mmHg 94%

    Tomorrow, 16 November, Friday

    Time Temperature Precipitation Wind Pressure Humidity
    00:00 +11°C° 2.6 mm 0 mps 548 mmHg 94%
    01:00 +11°C° 2.6 mm 0 mps 548 mmHg 94%
    02:00 +11°C° 1.2 mm 0 mps 548 mmHg 94%
    03:00 +10°C° 1.2 mm 0 mps 548 mmHg 94%
    04:00 +10°C° 1.2 mm 0 mps 547 mmHg 95%
    05:00 +11°C° 0.3 mm 0 mps 548 mmHg 93%
    06:00 +11°C° 0.3 mm 0 mps 548 mmHg 92%
    07:00 +11°C° 0.3 mm 0 mps 549 mmHg 90%
    08:00 +12°C° 0.2 mm 0 mps 549 mmHg 86%
    09:00 +14°C° 0.2 mm 1 mps 550 mmHg 82%
    10:00 +15°C° 0.2 mm 1 mps 550 mmHg 78%
    11:00 +16°C° 0.1 mm 1 mps 550 mmHg 74%
    12:00 +16°C° 0.1 mm 1 mps 550 mmHg 69%
    13:00 +17°C° 0.1 mm 2 mps 550 mmHg 65%
    14:00 +16°C° 0.3 mm 1 mps 550 mmHg 70%
    15:00 +16°C° 0.3 mm 1 mps 549 mmHg 75%
    16:00 +15°C° 0.3 mm 1 mps 548 mmHg 80%
    17:00 +14°C° 0.5 mm 1 mps 548 mmHg 85%
    18:00 +13°C° 0.5 mm 1 mps 548 mmHg 90%
    19:00 +11°C° 0.5 mm 0 mps 548 mmHg 95%
    20:00 +11°C° 0.5 mm 0 mps 548 mmHg 95%
    21:00 +11°C° 0.5 mm 0 mps 548 mmHg 95%
    22:00 +11°C° 0.5 mm 0 mps 549 mmHg 95%
    23:00 +11°C° 0.4 mm 0 mps 549 mmHg 94%

    Day after tomorrow, 17 November, Saturday

    Time Temperature Precipitation Wind Pressure Humidity
    00:00 +11°C° 0.4 mm 0 mps 548 mmHg 94%
    01:00 +11°C° 0.4 mm 0 mps 548 mmHg 94%
    02:00 +11°C° 0.2 mm 0 mps 548 mmHg 94%
    03:00 +10°C° 0.2 mm 0 mps 548 mmHg 94%
    04:00 +10°C° 0.2 mm 0 mps 547 mmHg 93%
    05:00 +11°C° 0.1 mm 0 mps 548 mmHg 92%
    06:00 +11°C° 0.1 mm 0 mps 548 mmHg 91%
    07:00 +11°C° 0.1 mm 0 mps 549 mmHg 89%
    08:00 +13°C° 0.1 mm 1 mps 550 mmHg 85%
    09:00 +14°C° 0.1 mm 1 mps 550 mmHg 80%
    10:00 +15°C° 0.1 mm 1 mps 551 mmHg 76%
    11:00 +16°C° 0.2 mm 1 mps 551 mmHg 73%
    12:00 +16°C° 0.2 mm 2 mps 551 mmHg 71%
    13:00 +17°C° 0.2 mm 2 mps 550 mmHg 69%
    14:00 +16°C° 0.4 mm 2 mps 549 mmHg 74%
    15:00 +15°C° 0.4 mm 2 mps 549 mmHg 79%
    16:00 +15°C° 0.4 mm 1 mps 548 mmHg 84%
    17:00 +14°C° 0.9 mm 1 mps 548 mmHg 87%
    18:00 +13°C° 0.9 mm 1 mps 548 mmHg 91%
    19:00 +11°C° 0.9 mm 0 mps 548 mmHg 95%
    20:00 +11°C° 1 mm 0 mps 548 mmHg 95%
    21:00 +11°C° 1 mm 0 mps 549 mmHg 94%
    22:00 +11°C° 1 mm 0 mps 549 mmHg 94%
    23:00 +11°C° 2.4 mm 0 mps 549 mmHg 93%

    18 November, Sunday

    Time Temperature Precipitation Wind Pressure Humidity
    00:00 +11°C° 2.4 mm 0 mps 548 mmHg 93%
    01:00 +11°C° 2.4 mm 0 mps 548 mmHg 92%
    02:00 +11°C° 1.4 mm 0 mps 548 mmHg 92%
    03:00 +10°C° 1.4 mm 0 mps 547 mmHg 93%
    04:00 +10°C° 1.4 mm 0 mps 547 mmHg 93%
    05:00 +10°C° 0.8 mm 0 mps 548 mmHg 91%
    06:00 +11°C° 0.8 mm 0 mps 548 mmHg 90%
    07:00 +11°C° 0.8 mm 0 mps 548 mmHg 89%
    08:00 +13°C° 0.6 mm 1 mps 549 mmHg 85%
    09:00 +14°C° 0.6 mm 1 mps 550 mmHg 81%
    10:00 +15°C° 0.6 mm 1 mps 551 mmHg 77%
    11:00 +15°C° 0.7 mm 1 mps 551 mmHg 76%
    12:00 +16°C° 0.7 mm 1 mps 550 mmHg 76%
    13:00 +16°C° 0.7 mm 2 mps 550 mmHg 75%
    14:00 +15°C° 1.1 mm 2 mps 549 mmHg 79%
    15:00 +14°C° 1.1 mm 1 mps 548 mmHg 84%
    16:00 +14°C° 1.1 mm 1 mps 547 mmHg 88%
    17:00 +13°C° 1.4 mm 1 mps 547 mmHg 89%
    18:00 +12°C° 1.4 mm 1 mps 548 mmHg 91%
    19:00 +12°C° 1.4 mm 1 mps 548 mmHg 93%
    20:00 +11°C° 1.1 mm 1 mps 548 mmHg 92%
    21:00 +11°C° 1.1 mm 1 mps 548 mmHg 91%
    22:00 +11°C° 1.1 mm 1 mps 548 mmHg 90%
    23:00 +11°C° 0.5 mm 1 mps 548 mmHg 89%

    19 November, Monday

    Time Temperature Precipitation Wind Pressure Humidity
    00:00 +11°C° 0.5 mm 1 mps 548 mmHg 89%
    01:00 +11°C° 0.5 mm 1 mps 547 mmHg 88%
    02:00 +10°C° 0.3 mm 1 mps 547 mmHg 88%
    03:00 +10°C° 0.3 mm 1 mps 547 mmHg 87%
    04:00 +10°C° 0.3 mm 1 mps 546 mmHg 87%
    05:00 +10°C° 0.1 mm 1 mps 547 mmHg 85%
    06:00 +11°C° 0.1 mm 1 mps 547 mmHg 84%
    07:00 +11°C° 0.1 mm 1 mps 548 mmHg 83%
    08:00 +13°C° 0 mm 1 mps 549 mmHg 75%
    09:00 +15°C° 0 mm 1 mps 550 mmHg 67%
    10:00 +18°C° 0 mm 1 mps 552 mmHg 59%
    11:00 +17°C° 0.3 mm 2 mps 551 mmHg 62%
    12:00 +17°C° 0.3 mm 2 mps 550 mmHg 65%
    13:00 +17°C° 0.3 mm 2 mps 550 mmHg 69%
    14:00 +16°C° 0.7 mm 2 mps 549 mmHg 73%
    15:00 +15°C° 0.7 mm 2 mps 548 mmHg 77%
    16:00 +15°C° 0.7 mm 1 mps 547 mmHg 81%
    17:00 +14°C° 1.2 mm 1 mps 547 mmHg 84%
    18:00 +13°C° 1.2 mm 1 mps 547 mmHg 88%
    19:00 +11°C° 1.2 mm 0 mps 547 mmHg 92%
    20:00 +11°C° 2 mm 0 mps 548 mmHg 92%
    21:00 +10°C° 2 mm 0 mps 548 mmHg 92%
    22:00 +11°C° 2 mm 1 mps 548 mmHg 91%
    23:00 +11°C° 1.7 mm 1 mps 548 mmHg 91%

    20 November, Tuesday

    Time Temperature Precipitation Wind Pressure Humidity
    00:00 +11°C° 1.7 mm 1 mps 548 mmHg 91%
    01:00 +11°C° 1.7 mm 1 mps 547 mmHg 90%
    02:00 +11°C° 1.8 mm 1 mps 547 mmHg 90%
    03:00 +10°C° 1.8 mm 1 mps 547 mmHg 89%
    04:00 +10°C° 1.8 mm 1 mps 547 mmHg 89%
    05:00 +10°C° 1.4 mm 1 mps 547 mmHg 89%
    06:00 +11°C° 1.4 mm 1 mps 547 mmHg 89%
    07:00 +11°C° 1.4 mm 1 mps 548 mmHg 89%
    08:00 +12°C° 0.9 mm 1 mps 549 mmHg 86%
    09:00 +12°C° 0.9 mm 1 mps 549 mmHg 84%
    10:00 +12°C° 0.9 mm 0 mps 550 mmHg 81%
    11:00 +14°C° 0.4 mm 1 mps 550 mmHg 79%
    12:00 +15°C° 0.4 mm 1 mps 549 mmHg 77%
    13:00 +15°C° 0.4 mm 1 mps 549 mmHg 75%
    14:00 +15°C° 0.3 mm 1 mps 549 mmHg 77%
    15:00 +14°C° 0.3 mm 1 mps 548 mmHg 80%
    16:00 +14°C° 0.3 mm 1 mps 548 mmHg 82%
    17:00 +13°C° 0.4 mm 1 mps 548 mmHg 85%
    18:00 +12°C° 0.4 mm 1 mps 548 mmHg 89%
    19:00 +10°C° 0.4 mm 0 mps 548 mmHg 93%
    20:00 +10°C° 0.6 mm 0 mps 548 mmHg 92%
    21:00 +10°C° 0.6 mm 0 mps 548 mmHg 91%
    22:00 +10°C° 0.6 mm 0 mps 549 mmHg 91%
    23:00 +10°C° 0.8 mm 0 mps 548 mmHg 90%
    Show more